This is the latest recevied weather packets stored in our database for station/object K5MFB-1. If no packets are shown the sender has not sent any weather packets the latest 10 day(s).
| Time | Temp. | Humidity | Pressure | Rain* | Wind** | Luminosity | Snow |
|---|---|---|---|---|---|---|---|
| 1777257856 | 25° C | 82% | 1005.9 hPa | 0 mm | 0.45 m/s, 197° | - | - |
| 1777257796 | 25° C | 82% | 1005.9 hPa | 0 mm | 0.45 m/s, 197° | - | - |
| 1777257736 | 25° C | 82% | 1005.9 hPa | 0 mm | 0.45 m/s, 197° | - | - |
| 1777257676 | 25° C | 82% | 1005.9 hPa | 0 mm | 0.45 m/s, 197° | - | - |
| 1777257616 | 25° C | 82% | 1005.9 hPa | 0 mm | 0.89 m/s, 155° | - | - |
| 1777257556 | 25° C | 82% | 1005.9 hPa | 0 mm | 0.89 m/s, 155° | - | - |
| 1777257496 | 25° C | 82% | 1005.9 hPa | 0 mm | 0.89 m/s, 155° | - | - |
| 1777257436 | 25° C | 82% | 1005.9 hPa | 0 mm | 0.89 m/s, 155° | - | - |
| 1777257376 | 25° C | 82% | 1005.9 hPa | 0 mm | 0.89 m/s, 155° | - | - |
| 1777257316 | 25.56° C | 82% | 1005.8 hPa | 0 mm | 0.45 m/s, 151° | - | - |
| 1777257256 | 25.56° C | 82% | 1005.8 hPa | 0 mm | 0.45 m/s, 151° | - | - |
| 1777257197 | 25.56° C | 82% | 1005.8 hPa | 0 mm | 0.45 m/s, 151° | - | - |
| 1777257136 | 25.56° C | 82% | 1005.8 hPa | 0 mm | 0.45 m/s, 151° | - | - |
| 1777257076 | 25.56° C | 82% | 1005.8 hPa | 0 mm | 0.45 m/s, 151° | - | - |
| 1777257016 | 25.56° C | 81% | 1005.6 hPa | 0 mm | 1.34 m/s, 205° | - | - |
| 1777256956 | 25.56° C | 81% | 1005.6 hPa | 0 mm | 1.34 m/s, 205° | - | - |
| 1777256897 | 25.56° C | 81% | 1005.6 hPa | 0 mm | 1.34 m/s, 205° | - | - |
| 1777256836 | 25.56° C | 81% | 1005.6 hPa | 0 mm | 1.34 m/s, 205° | - | - |
| 1777256776 | 25.56° C | 81% | 1005.6 hPa | 0 mm | 1.34 m/s, 205° | - | - |
| 1777256716 | 25.56° C | 81% | 1005.8 hPa | 0 mm | 0.89 m/s, 114° | - | - |
| 1777256656 | 25.56° C | 81% | 1005.8 hPa | 0 mm | 0.89 m/s, 114° | - | - |
| 1777256596 | 25.56° C | 81% | 1005.8 hPa | 0 mm | 0.89 m/s, 114° | - | - |
| 1777256536 | 25.56° C | 81% | 1005.8 hPa | 0 mm | 0.89 m/s, 114° | - | - |
| 1777256476 | 25.56° C | 81% | 1005.8 hPa | 0 mm | 0.89 m/s, 114° | - | - |
| 1777256416 | 25.56° C | 81% | 1005.8 hPa | 0 mm | 1.79 m/s, 91° | - | - |
* Rain latest hour (hover to see other rain measurements)
** Current wind speed in m/s (hover to see current wind gust speed)